Location: ??????
(41.3164°N, 22.6615°E)
Time: 00:35:38
(UTC+00:00)

CSL-04 Debris - Pass Details

Date: 16 October 2021
Orbit: 827 x 847 km, 98.9° (Epoch: 02 December)

Event Time Altitude Azimuth Distance (km) Brightness Sun altitude
Exits shadow 17:26:55 29° 131° (SE) 1,473 5.0 -19.5°
Maximum altitude 17:29:24 52° 71° (ENE) 1,024 4.3 -20.0°
Drops below altitude 10° 17:34:38 10° 356° (N) 2,445 6.7 -21.0°
Sets 17:37:03 0° 352° (N) 3,385 7.5 -21.4°
